Barrow, AK

3:57 AM AKDT on July 29, 2017 (GMT -0800)
Wiley Post-Will Rogers Memorial

Weather History for PABR - August, 2013

Change the Weather History Date:

Friday, August 30, 2013

  Actual Average Record
Temperature  
Mean Temperature 35 °F 37 °F  
Max Temperature 41 °F 41 °F 59 °F (2000)
Min Temperature 28 °F 33 °F 22 °F (1988)
Degree Days  
Heating Degree Days 30 28  
Month to date heating degree days 750 779  
Since 1 June heating degree days 2157 2406  
Since 1 July heating degree days 1379 1526  
Cooling Degree Days 0    
Month to date cooling degree days 0  
Year to date cooling degree days 0  
Since 1 June cooling degree days 0  
Moisture  
Dew Point 32 °F    
Average Humidity 0    
Maximum Humidity 0    
Minimum Humidity 0    
Precipitation  
Precipitation 0.00 in 0.03 in 0.50 in (1949)
Month to date precipitation 1.29 1.02  
Year to date precipitation 4.96 3.02  
Snow  
Snow 0.00 in 0.00 in 0.40 in (1980)
Month to date snowfall 0.5 0.8  
Since 1 June snowfall 0.8 1.7  
Since 1 July snowfall 0.5 1.0  
Snow Depth 0.00 in    
Sea Level Pressure  
Sea Level Pressure 29.87 in    
Wind  
Wind Speed 8 mph (WNW)    
Max Wind Speed 21 mph    
Max Gust Speed 24 mph    
Visibility 10 miles    
Events      
T = Trace of Precipitation, MM = Missing Value Source: NWS Daily Summary

Daily Weather History Graph

Daily Weather History Graph

Search for Another Location

Airport or City:

Trip Planner

Search our weather history database for the weather conditions in past years. The results will help you decide how hot, cold, wet, or windy it might be!

Date:

Astronomy

Aug. 30, 2013 Rise Set
Actual Time 6:26 AM AKDT 10:24 PM AKDT
Civil Twilight 4:59 AM AKDT 11:49 PM AKDT
Nautical Twilight Sun does not set Sun does not set
Astronomical Twilight Sun does not set Sun does not set
Moon No Moon Rise No Moon Set
Length of Visible Light 18h 50m
Length of Day
15h 58m
Waning Crescent, 28% of the Moon is Illuminated
Aug 30
Waning Crescent
Sep 5
New
Sep 12
First Quarter
Sep 19
Full
Sep 26
Last Quarter

Hourly Weather History & Observations

Time (AKDT) Temp. Windchill Dew Point Humidity Pressure Visibility Wind Dir Wind Speed Gust Speed Precip Events Conditions
12:53 AM 30.9 °F 26.2 °F 28.0 °F 89% 29.87 in 10.0 mi South 4.6 mph - N/A   Mostly Cloudy
1:53 AM 28.9 °F 23.9 °F 27.0 °F 92% 29.89 in 10.0 mi South 4.6 mph - N/A   Mostly Cloudy
2:53 AM 30.9 °F 25.2 °F 25.0 °F 79% 29.88 in 10.0 mi SSW 5.8 mph - N/A   Mostly Cloudy
3:53 AM 30.9 °F 27.5 °F 25.0 °F 79% 29.87 in 10.0 mi SSW 3.5 mph - N/A   Mostly Cloudy
4:53 AM 30.0 °F - 27.0 °F 88% 29.87 in 10.0 mi Calm Calm - N/A   Mostly Cloudy
5:00 AM 30.2 °F - 26.6 °F 86% 29.86 in 10.0 mi Calm Calm - N/A   Mostly Cloudy
5:53 AM 30.0 °F - 28.0 °F 92% 29.86 in 10.0 mi Calm Calm - N/A   Mostly Cloudy
6:53 AM 28.0 °F - 27.0 °F 96% 29.86 in 10.0 mi Calm Calm - N/A   Scattered Clouds
7:53 AM 28.9 °F 25.2 °F 27.0 °F 92% 29.86 in 3.0 mi SE 3.5 mph - N/A   Scattered Clouds
8:53 AM 32.0 °F - 30.9 °F 96% 29.86 in 10.0 mi Calm Calm - N/A   Scattered Clouds
9:53 AM 36.0 °F - 28.0 °F 73% 29.85 in 10.0 mi Calm Calm - N/A   Scattered Clouds
10:53 AM 39.0 °F 34.8 °F 27.0 °F 62% 29.85 in 10.0 mi NNE 5.8 mph - N/A   Mostly Cloudy
11:53 AM 39.9 °F 35.8 °F 25.0 °F 55% 29.86 in 10.0 mi North 5.8 mph - N/A   Mostly Cloudy
12:53 PM 39.9 °F 37.8 °F 26.1 °F 58% 29.86 in 10.0 mi NE 3.5 mph - N/A   Mostly Cloudy
1:53 PM 39.9 °F 34.5 °F 37.9 °F 93% 29.86 in 10.0 mi North 8.1 mph - N/A   Mostly Cloudy
2:53 PM 39.9 °F 34.5 °F 39.0 °F 97% 29.86 in 10.0 mi North 8.1 mph - N/A   Mostly Cloudy
3:53 PM 39.9 °F 34.5 °F 37.9 °F 93% 29.87 in 10.0 mi NNW 8.1 mph - N/A   Mostly Cloudy
4:53 PM 39.0 °F 34.8 °F 37.9 °F 96% 29.88 in 10.0 mi NW 5.8 mph - N/A   Mostly Cloudy
5:53 PM 39.0 °F 32.3 °F 37.9 °F 96% 29.89 in 10.0 mi WNW 10.4 mph - N/A   Mostly Cloudy
6:53 PM 39.0 °F 31.8 °F 37.9 °F 96% 29.89 in 10.0 mi West 11.5 mph - N/A   Mostly Cloudy
7:53 PM 39.0 °F 31.4 °F 37.9 °F 96% 29.89 in 10.0 mi West 12.7 mph - N/A   Mostly Cloudy
8:53 PM 37.9 °F 29.2 °F 37.0 °F 97% 29.89 in 10.0 mi West 15.0 mph - N/A   Mostly Cloudy
9:46 PM 37.4 °F 28.2 °F 37.4 °F 100% 29.88 in 10.0 mi West 16.1 mph - N/A   Mostly Cloudy
9:53 PM 37.9 °F 29.2 °F 37.0 °F 97% 29.88 in 10.0 mi West 15.0 mph - N/A   Mostly Cloudy
10:53 PM 37.0 °F 27.0 °F 36.0 °F 96% 29.88 in 10.0 mi West 18.4 mph - N/A   Mostly Cloudy
11:53 PM 37.0 °F 27.0 °F 36.0 °F 96% 29.88 in 10.0 mi West 18.4 mph - N/A   Overcast